Location: Nicosia
(35.1670°N, 33.3670°E)
Time: 01:59:15
(UTC+02:00)

BlueWalker 3 - Visible Passes

Search period start: 01 December 2022 00:00
Search period end: 11 December 2022 00:00
Orbit: 500 x 519 km, 53.2° (Epoch: 30 November)

Date Brightness Start Highest point End Pass type
(mag) Time Alt. Az. Time Alt. Az. Time Alt. Az.
07 Dec 4.3 18:13:31 10° NNW 18:14:16 13° N 18:14:16 13° N visible
08 Dec 3.8 17:55:02 10° NNW 17:56:58 17° NNE 17:56:58 17° NNE visible
09 Dec 3.5 17:36:32 10° NNW 17:39:20 18° NNE 17:39:52 18° NE visible
09 Dec 5.0 19:14:27 10° NW 19:14:44 12° NW 19:14:44 12° NW visible
10 Dec 3.5 17:18:03 10° NNW 17:20:56 19° NNE 17:22:59 14° ENE visible
10 Dec 4.0 18:56:02 10° NW 18:57:52 25° WNW 18:57:52 25° WNW visible
